Погода в Сан-Томе

Сан-Томе и Принсипи     0°19′23″N   6°43′54″E
темп.,
°C
ветер,
м/с
пор.,
м/с
влажн.,
%
обл.,
%
осадки,
мм/ч
давл.,
гПа
погр.,
м
5 августа, чт
чт500:00+24ююз457823 0.1 1017588
03:00+24юз457923 0.0 1015475
06:00+24ююз458160 0.1 1017452
09:00+26ю557268 0.2 1018746
12:00+26ю556925 0.3 1017778
15:00+26ююз657231 0.0 1015678
18:00+25ююз557716 0.1 1015428
21:00+24юз448011 0.0 1017409
6 августа, пт
пт600:00+24юз448332 0.1 1017382
03:00+24юз448275 0.1 1015397
06:00+24юз338342 0.1 1017381
09:00+25ююз437742 0.1 1018639
12:00+25ю337773 0.2 1016721
15:00+24юз448087 0.2 1014594
18:00+24юз348066 0.3 1015490
21:00+24зюз228046 0.1 1017315
7 августа, сб
сб700:00+24юз338119 0.1 1016307
03:00+23юз337951 0.0 1015438
06:00+23зюз337992 0.0 1016368
09:00+25зюз2270100 0.0 1017605
12:00+26юз126894 0.0 1016635
15:00+26зюз136851 0.0 1014652
18:00+25ю027594 0.0 1016431
21:00+24юз337828 0.1 1018511
8 августа, вс
вс800:00+23юз668327 0.1 1017446
03:00+23юз558250 0.0 1016457
06:00+23юз558190 0.1 1017495
09:00+25ююз547199 0.1 1019880
12:00+25ююз557133 0.1 1017763
15:00+25ююз546826 0.0 1015686
18:00+24ююз447461 0.0 1016512
21:00+24юз557756 0.0 1018523
9 августа, пн
пн900:00+23юз458087 0.0 1017477
03:00+23юз558026 0.0 1015591
06:00+22юз4477100 0.0 1017531
09:00+25ююз34665 0.0 1018772
12:00+25ю446666 0.0 1017841
15:00+24ю557263 0.0 1015849
18:00+24ююз557274 0.0 1016764
21:00+23ююз557340 0.0 1018705